Bloomington, IN

10:59 AM EST on December 09, 2019 (GMT -0500)
Monroe County

Weather History for KBMG - September, 2019

Change the Weather History Date:

Friday, September 6, 2019

  Actual Average Record
Temperature  
Mean Temperature 69 °F 69 °F  
Max Temperature 82 °F 82 °F 93 °F (2015)
Min Temperature 55 °F 57 °F 45 °F (2017)
Degree Days  
Heating Degree Days 0 1  
Month to date heating degree days 0 2  
Since 1 July heating degree days 0 9  
Cooling Degree Days 4 5  
Month to date cooling degree days 36 33  
Year to date cooling degree days 1008 850  
Growing Degree Days 19 (Base 50)    
Moisture  
Dew Point 61 °F    
Average Humidity 80    
Maximum Humidity 97    
Minimum Humidity 62    
Precipitation  
Precipitation 0.00 in 0.12 in 0.23 in (2018)
Month to date precipitation 0.87 0.61  
Year to date precipitation 37.09 33.80  
Sea Level Pressure  
Sea Level Pressure 29.96 in    
Wind  
Wind Speed 3 mph ()    
Max Wind Speed 15 mph    
Max Gust Speed 22 mph    
Visibility 9.0 miles    
Events      
T = Trace of Precipitation, MM = Missing Value Source: Averaged Metar Reports

Daily Weather History Graph

Daily Weather History Graph

Search for Another Location

Airport or City:

Astronomy

Sep. 06, 2019 Rise Set
Actual Time 7:19 AM EDT 8:09 PM EDT
Civil Twilight 6:52 AM EDT 8:36 PM EDT
Nautical Twilight 6:20 AM EDT 9:08 PM EDT
Astronomical Twilight 5:46 AM EDT 9:42 PM EDT
Moon 3:24 PM EDT (9/6) 12:29 AM EDT (9/6)
Length of Visible Light 13h 44m
Length of Day
12h 50m
First Quarter, 55% of the Moon is Illuminated
Sep 6
First Quarter
Sep 14
Full
Sep 21
Last Quarter
Sep 28
New
Oct 5
First Quarter

Hourly Weather History & Observations

Time (EDT) Temp. Heat Index Dew Point Humidity Pressure Visibility Wind Dir Wind Speed Gust Speed Precip Events Conditions
12:53 AM 59.0 °F - 57.0 °F 93% 30.03 in 5.0 mi Calm Calm - N/A   Clear
1:53 AM 59.0 °F - 57.0 °F 93% 30.01 in 10.0 mi Calm Calm - N/A   Clear
2:53 AM 57.9 °F - 55.9 °F 93% 30.00 in 9.0 mi Calm Calm - N/A   Clear
3:53 AM 57.9 °F - 55.9 °F 93% 29.99 in 8.0 mi Calm Calm - N/A   Clear
4:53 AM 57.0 °F - 55.0 °F 93% 29.99 in 10.0 mi Calm Calm - N/A   Clear
5:05 AM 57.0 °F - 55.0 °F 93% 30.00 in 2.5 mi Calm Calm - N/A   Clear
5:13 AM 57.0 °F - 55.0 °F 93% 30.00 in 7.0 mi Calm Calm - N/A   Clear
5:24 AM 55.9 °F - 55.0 °F 97% 30.00 in 1.8 mi Calm Calm - N/A   Partly Cloudy
5:29 AM 55.9 °F - 54.0 °F 93% 30.00 in 3.0 mi Calm Calm - N/A   Clear
5:53 AM 57.0 °F - 55.0 °F 93% 29.98 in 10.0 mi Calm Calm - N/A   Clear
6:53 AM 57.0 °F - 55.0 °F 93% 29.96 in 10.0 mi Calm Calm - N/A   Clear
7:53 AM 60.1 °F - 55.9 °F 86% 29.96 in 10.0 mi Calm Calm - N/A   Clear
8:53 AM 64.9 °F - 60.1 °F 84% 29.96 in 10.0 mi SSW 5.8 mph - N/A   Scattered Clouds
9:53 AM 68.0 °F - 61.0 °F 78% 29.96 in 10.0 mi SSW 6.9 mph - N/A   Partly Cloudy
10:53 AM 71.1 °F - 61.0 °F 70% 29.95 in 10.0 mi SW 12.7 mph - N/A   Scattered Clouds
11:53 AM 75.0 °F - 62.1 °F 64% 29.93 in 10.0 mi SW 9.2 mph 19.6 mph N/A   Clear
12:53 PM 78.1 °F - 64.9 °F 64% 29.90 in 10.0 mi SW 13.8 mph 21.9 mph N/A   Clear
1:53 PM 80.1 °F 82.3 °F 66.9 °F 64% 29.89 in 10.0 mi WNW 11.5 mph 18.4 mph N/A   Partly Cloudy
2:33 PM 78.1 °F - 66.9 °F 68% 29.91 in 10.0 mi West 6.9 mph - N/A   Overcast
2:53 PM 78.1 °F - 68.0 °F 71% 29.89 in 10.0 mi WNW 6.9 mph - N/A   Overcast
3:53 PM 79.0 °F - 69.1 °F 72% 29.88 in 10.0 mi WNW 11.5 mph - N/A   Overcast
4:11 PM 81.0 °F 84.1 °F 69.1 °F 67% 29.89 in 10.0 mi West 9.2 mph - N/A   Mostly Cloudy
4:53 PM 79.0 °F - 69.1 °F 72% 29.88 in 10.0 mi Variable 4.6 mph - N/A   Mostly Cloudy
5:53 PM 80.1 °F 82.7 °F 68.0 °F 67% 29.89 in 10.0 mi NNW 9.2 mph 20.7 mph N/A   Scattered Clouds
6:53 PM 75.9 °F - 66.0 °F 71% 29.92 in 10.0 mi NNW 13.8 mph 19.6 mph N/A   Mostly Cloudy
7:06 PM 75.0 °F - 64.0 °F 69% 29.93 in 10.0 mi NNW 9.2 mph 20.7 mph N/A   Overcast
7:53 PM 72.0 °F - 61.0 °F 68% 29.94 in 10.0 mi NW 3.5 mph - N/A   Clear
8:53 PM 70.0 °F - 62.1 °F 76% 29.95 in 10.0 mi WNW 5.8 mph - N/A   Mostly Cloudy
9:53 PM 69.1 °F - 62.1 °F 78% 29.96 in 10.0 mi NW 4.6 mph - N/A   Mostly Cloudy
10:09 PM 70.0 °F - 62.1 °F 76% 29.99 in 10.0 mi NW 4.6 mph - N/A   Mostly Cloudy
10:53 PM 69.1 °F - 62.1 °F 78% 29.98 in 10.0 mi North 4.6 mph - N/A   Mostly Cloudy
11:43 PM 68.0 °F - 60.1 °F 76% 30.01 in 10.0 mi North 8.1 mph 20.7 mph N/A   Overcast
11:53 PM 66.9 °F - 60.1 °F 79% 29.99 in 10.0 mi North 12.7 mph - N/A   Overcast